Content
SEND FEEDBACK

Daily
Averages
Monthly
Summary
United States of America

BOX ELDER, SOUTH DAKOTA


Home > North America > United States > South Dakota
Elevation: 3170 feet     Latitude: 44 09N     Longitude: 103 06W

WEATHER
 
SELECT A DAY
Number of Records: 207,026;   Date Range: 1/1/95 - 9/29/14
 
SHARE

PRINT THIS DATA

[ ← Previous Day ]
WEATHER ALMANAC - NOVEMBER 21, 2013
[ Next Day → ]
[ °C ]   °F
Weather ElementAverageHighLow
Temperature12.4 °F18 °F (2:58 pm)9 °F (10:58 pm)
Dewpoint3.9 °F6.8 °F (12:48 am)1.2 °F (11:58 pm)
Humidity69 %79 % (12:48 am)55 % (2:58 pm)
Barometer30.52 in30.77 in (6:58 pm)30.26 in (12:13 am)
Wind Speed16.2 mph27.6 mph (12:13 am)
Wind Gust39.1 mph (12:13 am)
Weather ElementAverage
Visibility10 mi
Wind DirectionWNW (291.9 °)

Weather ElementTotal
Precipitation---
Heating Degree Days51.5 (Base 65)
Averaged from 42 records on November 21, 2013
WEATHER CONDITIONS BREAKOUT
WIND DIRECTION BREAKOUT
WEATHER BY HOUR - NOVEMBER 21, 2013
[ °C ]   °F
Local TimeTemperatureDewpointHumidityBarometerVisibilityWind DirectionWind SpeedGust SpeedPrecipitationEventsConditions
12:13 AM12.2 °F5.0 °F73 %30.26 in10.0 miNNW (340°)27.6 mph39.1 mphLight Drizzle
12:15 AM12.2 °F5.0 °F73 %30.27 in10.0 miNNW (340°)25.3 mph39.1 mphOvercast
12:48 AM12.2 °F6.8 °F79 %30.28 in10.0 miNNW (340°)25.3 mph32.2 mphSnowLight Snow
12:58 AM12.7 °F5.9 °F74 %30.45 in10.0 miNNW (340°)26.5 mph32.2 mph0.00 inLight Drizzle
1:02 AM12.2 °F5.0 °F73 %30.28 in10.0 miNNW (340°)26.5 mph34.5 mphOvercast
1:30 AM12.2 °F5.0 °F73 %30.30 in10.0 miNNW (340°)25.3 mphSnowLight Snow
1:42 AM12.2 °F5.0 °F73 %30.31 in10.0 miNNW (340°)21.9 mphOvercast
1:58 AM12.6 °F4.8 °F71 %30.48 in10.0 miNNW (340°)18.4 mph26.5 mph0.00 inOvercast
2:08 AM12.2 °F5.0 °F73 %30.32 in10.0 miNNW (340°)23.0 mph31.1 mphSnowLight Snow
2:16 AM12.2 °F5.0 °F73 %30.32 in10.0 miNNW (340°)21.9 mph31.1 mphOvercast
2:27 AM12.2 °F5.0 °F73 %30.31 in10.0 miNNW (340°)23.0 mph29.9 mphOvercast
2:37 AM12.2 °F5.0 °F73 %30.32 in10.0 miNNW (340°)25.3 mph28.8 mphOvercast
2:42 AM12.2 °F3.2 °F67 %30.32 in10.0 miNNW (340°)24.2 mph31.1 mphOvercast
2:58 AM11.8 °F4.3 °F72 %30.49 in10.0 miNNW (340°)21.9 mph0.00 inOvercast
3:14 AM12.2 °F5.0 °F73 %30.32 in10.0 miNNW (340°)18.4 mphOvercast
3:15 AM12.2 °F5.0 °F73 %30.33 in10.0 miNNW (340°)18.4 mphSnowLight Snow
3:48 AM12.2 °F5.0 °F73 %30.33 in10.0 miNNW (340°)19.6 mph27.6 mphOvercast
3:58 AM12.0 °F4.5 °F72 %30.51 in10.0 miNNW (340°)15.0 mph0.00 inOvercast
4:58 AM11.8 °F3.2 °F68 %30.53 in10.0 miNorth (350°)19.6 mph24.2 mphOvercast
5:59 AM11.5 °F1.8 °F65 %30.58 in10.0 miNorth (350°)19.6 mphOvercast
6:34 AM10.4 °F1.4 °F67 %30.41 in10.0 miNorth (350°)16.1 mph24.2 mphSnowLight Snow
6:45 AM10.4 °F3.2 °F73 %30.41 in10.0 miNNW (340°)16.1 mph21.9 mphOvercast
6:54 AM10.4 °F3.2 °F73 %30.42 in10.0 miNorth (350°)16.1 mphSnowLight Snow
6:58 AM10.4 °F3.2 °F73 %30.62 in10.0 miNorth (350°)16.1 mph0.00 inSnowLight Snow
7:20 AM12.2 °F3.2 °F67 %30.44 in10.0 miNorth (350°)15.0 mphOvercast
7:58 AM11.5 °F2.8 °F68 %30.64 in10.0 miNorth (350°)13.8 mph0.00 inOvercast
8:58 AM11.8 °F2.7 °F67 %30.67 in10.0 miNorth (360°)16.1 mphOvercast
9:58 AM13.1 °F2.3 °F62 %30.70 in10.0 miNorth (360°)15.0 mph19.6 mphOvercast
10:58 AM14.0 °F2.7 °F61 %30.70 in10.0 miNorth (350°)17.3 mphOvercast
11:58 AM15.1 °F3.6 °F60 %30.68 in10.0 miNorth (360°)17.3 mphOvercast
12:59 PM16.2 °F3.2 °F57 %30.69 in10.0 miNorth (350°)13.8 mphOvercast
1:58 PM16.7 °F3.6 °F56 %30.67 in10.0 miNorth (10°)16.1 mphOvercast
2:58 PM18.0 °F4.1 °F55 %30.69 in10.0 miNNE (20°)8.1 mphClear
3:58 PM17.6 °F3.7 °F55 %30.70 in10.0 miNNE (20°)4.6 mphClear
4:58 PM15.8 °F3.6 °F59 %30.73 in10.0 miNorth (10°)1.2 mphClear
5:59 PM13.8 °F3.9 °F65 %30.75 in10.0 miSouth (180°)3.5 mphClear
6:58 PM11.7 °F3.6 °F70 %30.77 in10.0 miWSW (240°)3.5 mphClear
7:58 PM10.6 °F2.7 °F70 %30.75 in10.0 miSSW (210°)6.9 mphClear
8:58 PM10.8 °F3.7 °F73 %30.74 in10.0 miSW (220°)4.6 mphClear
9:58 PM10.0 °F3.6 °F75 %30.73 in10.0 miWSW (240°)2.3 mphClear
10:58 PM9.0 °F2.7 °F76 %30.72 in10.0 miSSW (200°)4.6 mphClear
11:58 PM9.1 °F1.2 °F70 %30.70 in10.0 miSW (220°)5.8 mphClear
Hourly data recorded from KRCA, located miles away from Box Elder, South Dakota







STORIES FROM OUR PARTNERS